Погода в Некрасове

Россия / Калужская область     54°49′49″N   37°08′41″E
темп.,
°C
ветер,
м/с
пор.,
м/с
влажн.,
%
обл.,
%
осадки,
мм/ч
давл.,
гПа
погр.,
м
10 мая, пн
пн1000:00+3сз411835 0.0 1021202
03:00+2ссз411840 0.0 1023204
06:00+3ссз310840 0.0 1025246
09:00+9с611530 0.0 10261183
12:00+11ссв79430 0.0 10261388
15:00+13ссв684670 0.0 10261475
18:00+12ссв596156 0.0 1025541
21:00+7ссв41177100 0.0 1026214
11 мая, вт
вт1100:00+5ссв312824 0.0 1026244
03:00+4ссв411891 0.0 1026210
06:00+6ссв513871 0.0 1027377
09:00+11св69710 0.0 1026519
12:00+16св69645 0.0 1025808
15:00+18всв686418 0.0 10241168
18:00+17в597992 0.8 1025559
21:00+11ююв399598 1.4 1026267
12 мая, ср
ср1200:00+8ююв229114 0.0 102719
03:00+7ююв229260 0.0 102810
06:00+8с229194 0.0 102748
09:00+10ссз3489100 0.0 1026188
12:00+14св61387100 0.7 10211062
15:00+14всв91691100 1.4 1018944
18:00+11ююв9148937 4.1 10181036
21:00+6юв410941 4.2 1022355
13 мая, чт
чт1300:00+5в4109615 0.0 1022213
03:00+6в51294100 0.0 1021268
06:00+8в51389100 0.0 1020344
09:00+11юв4987100 0.0 1019408
12:00+16ююв4671100 0.1 10181159
15:00+18ю356078 0.5 10171439
18:00+17ю1273100 0.0 101697
21:00+12юв359277 0.1 101780
14 мая, пт
пт1400:00+10ююв3393100 0.0 101749
03:00+9ююв22920 0.0 101825
06:00+10юв2388100 0.0 101883
09:00+15юв4775100 0.0 1017467
12:00+17юв598075 1.3 1016541
15:00+16юв3790100 4.8 1016199
18:00+19юв61082100 3.1 1013379
21:00+15юв3692100 5.3 101299